Powrót do katalogu

KUIPER-00437

AktywnyŁącznośćVLEO
NORAD 68870·PAYLOAD·🇺🇸 United States

Wystrzelony Apr 28, 2026 z Cape Canaveral Space Force Station

Loading…

Następne Przeloty (najbliższe 24 godziny)

TLE

ŚwieżeSource: CelesTrak SupGP

Epoka: Sep 14, 2026, 20:24 UTC

1 68870C 26095G   26257.85000000 -.01185500  00000+0 -73433-1 0  2575
2 68870  51.8858 170.1336 0007355 274.1208 207.2806 15.10416500    10

Śledź KUIPER-00437 w czasie rzeczywistym z AllMySat

Download on the App Store